This is the latest recevied weather packets stored in our database for station/object KG5WBN. If no packets are shown the sender has not sent any weather packets the latest 10 day(s).
| Time | Temp. | Humidity | Pressure | Rain* | Wind** | Luminosity | Snow |
|---|---|---|---|---|---|---|---|
| 1788558009 | 31.67° C | 50% | 1011.9 hPa | 0 mm | - | 331 W/m² | - |
| 1788557707 | 31.11° C | 50% | 1011.9 hPa | 0 mm | - | 327 W/m² | - |
| 1788557404 | 31.11° C | 50% | 1011.9 hPa | 0 mm | - | 348 W/m² | - |
| 1788557103 | 31.11° C | 51% | 1012.2 hPa | 0 mm | - | 341 W/m² | - |
| 1788556798 | 30.56° C | 51% | 1011.9 hPa | 0 mm | - | 194 W/m² | - |
| 1788556498 | 31.11° C | 51% | 1012.2 hPa | 0 mm | - | 129 W/m² | - |
| 1788556194 | 31.11° C | 51% | 1012.2 hPa | 0 mm | - | 240 W/m² | - |
| 1788555887 | 31.11° C | 51% | 1012.2 hPa | 0 mm | - | 331 W/m² | - |
| 1788555583 | 31.11° C | 51% | 1011.9 hPa | 0 mm | - | 384 W/m² | - |
| 1788555278 | 30° C | 51% | 1012.2 hPa | 0 mm | - | 92 W/m² | - |
| 1788554976 | 30.56° C | 51% | 1011.9 hPa | 0 mm | - | 96 W/m² | - |
| 1788554671 | 31.67° C | 50% | 1011.9 hPa | 0 mm | - | 157 W/m² | - |
| 1788554367 | 30.56° C | 51% | 1011.9 hPa | 0 mm | - | 389 W/m² | - |
| 1788554064 | 30.56° C | 51% | 1011.9 hPa | 0 mm | - | 103 W/m² | - |
| 1788553759 | 31.11° C | 50% | 1011.9 hPa | 0 mm | - | 387 W/m² | - |
| 1788553455 | 30.56° C | 51% | 1012.2 hPa | 0 mm | - | 404 W/m² | - |
| 1788553150 | 31.11° C | 51% | 1012.2 hPa | 0 mm | - | 162 W/m² | - |
| 1788552845 | 32.22° C | 51% | 1012.2 hPa | 0 mm | - | 121 W/m² | - |
| 1788552541 | 32.22° C | 51% | 1012.5 hPa | 0 mm | - | 396 W/m² | - |
| 1788552239 | 31.67° C | 51% | 1012.2 hPa | 0 mm | - | 393 W/m² | - |
| 1788551934 | 32.22° C | 54% | 1012.2 hPa | 0 mm | - | 448 W/m² | - |
| 1788551632 | 30.56° C | 56% | 1012.5 hPa | 0 mm | - | 400 W/m² | - |
| 1788551327 | 31.11° C | 54% | 1012.5 hPa | 0 mm | - | 96 W/m² | - |
| 1788551026 | 31.67° C | 55% | 1012.5 hPa | 0 mm | - | 321 W/m² | - |
| 1788550722 | 30.56° C | 55% | 1012.9 hPa | 0 mm | - | 245 W/m² | - |
* Rain latest hour (hover to see other rain measurements)
** Current wind speed in m/s (hover to see current wind gust speed)